Telfer, Australia

8:41 PM AWST on January 19, 2018 (GMT +0800)
Telfer

Weather History for YTEF - October, 2011

Change the Weather History Date:

Thursday, October 13, 2011

  Actual Average Record
Temperature  
Mean Temperature 86 °F -  
Max Temperature 103 °F - - ()
Min Temperature 70 °F - - ()
Cooling Degree Days 22    
Growing Degree Days 36 (Base 50)    
Moisture  
Dew Point 35 °F    
Average Humidity 15    
Maximum Humidity 38    
Minimum Humidity 4    
Precipitation  
Precipitation 0.00 in - - ()
Sea Level Pressure  
Sea Level Pressure 29.77 in    
Wind  
Wind Speed 11 mph ()    
Max Wind Speed 26 mph    
Max Gust Speed 37 mph    
T = Trace of Precipitation, MM = Missing Value Source: Averaged Metar Reports

Daily Weather History Graph

Daily Weather History Graph

Search for Another Location

Airport or City:

Trip Planner

Search our weather history database for the weather conditions in past years. The results will help you decide how hot, cold, wet, or windy it might be!

Date:

Astronomy

Oct. 13, 2011 Rise Set
Actual Time 5:21 AM AWST 5:53 PM AWST
Civil Twilight 4:59 AM AWST 6:16 PM AWST
Nautical Twilight 4:32 AM AWST 6:42 PM AWST
Astronomical Twilight 4:06 AM AWST 7:09 PM AWST
Moon 6:55 PM AWST (10/13) 5:41 AM AWST (10/13)
Length of Visible Light 13h 16m
Length of Day
12h 31m
Full, 99% of the Moon is Illuminated
Oct 13
Full
Oct 20
Last Quarter
Oct 27
New
Nov 3
First Quarter
Nov 11
Full

Hourly Weather History & Observations

Time (AWST) Temp. Dew Point Humidity Pressure Visibility Wind Dir Wind Speed Gust Speed Precip Events Conditions
12:00 AM 75 °F 39 °F 17% 29.76 in - NW 11.5 mph - -  
12:00 AM 75.2 °F 39.2 °F 27% 29.80 in - NW 11.5 mph - N/A   Unknown
1:00 AM 73.4 °F 42.8 °F 33% 29.80 in - West 6.9 mph - N/A   Unknown
2:00 AM 73 °F 43 °F 23% 29.73 in - West 8.1 mph - -  
3:00 AM 72 °F 43 °F 24% 29.73 in - West 8.1 mph - -  
3:00 AM 71.6 °F 42.8 °F 35% 29.77 in - West 8.1 mph - N/A   Unknown
4:00 AM 71.6 °F 42.8 °F 35% 29.80 in - West 6.9 mph - N/A   Unknown
5:00 AM 71 °F 44 °F 26% 29.75 in - West 10.4 mph - -  
5:00 AM 71.6 °F 44.6 °F 38% 29.80 in - West 10.4 mph - N/A   Unknown
6:00 AM 73 °F 44 °F 24% 29.77 in - WSW 10.4 mph - -  
6:00 AM 73.4 °F 42.8 °F 33% 29.80 in - WSW 10.4 mph - N/A   Unknown
7:00 AM 77.0 °F 42.8 °F 29% 29.83 in - West 6.9 mph - N/A   Unknown
8:00 AM 82 °F 42 °F 15% 29.79 in - WNW 4.6 mph - -  
8:00 AM 82.4 °F 42.8 °F 25% 29.83 in - WNW 4.6 mph - N/A   Unknown
9:00 AM 88 °F 42 °F 12% 29.80 in - WNW 5.8 mph - -  
9:00 AM 87.8 °F 42.8 °F 21% 29.83 in - WNW 5.8 mph - N/A   Unknown
10:00 AM 93.2 °F 37.4 °F 14% 29.83 in - West 9.2 mph - N/A   Unknown
11:00 AM 96 °F 33 °F 5% 29.77 in - WNW 10.4 mph - -  
11:00 AM 96.8 °F 33.8 °F 11% 29.83 in - WNW 10.4 mph - N/A   Unknown
12:00 PM 99 °F 30 °F 4% 29.74 in - West 16.1 mph - -  
12:00 PM 98.6 °F 30.2 °F 9% 29.80 in - West 16.1 mph - N/A   Unknown
12:18 PM 98.6 °F 30.2 °F 9% 29.77 in - West 19.6 mph 36.8 mph N/A   Unknown
1:04 PM 100.4 °F 32.0 °F 9% 29.77 in - West 17.3 mph 28.8 mph N/A   Unknown
1:51 PM 102.2 °F 28.4 °F 7% 29.74 in - West 23.0 mph - N/A   Unknown
1:57 PM 102.2 °F 30.2 °F 8% 29.74 in - WNW 25.3 mph 36.8 mph N/A   Unknown
2:00 PM 102 °F 30 °F 4% 29.70 in - WNW 26.5 mph - -  
2:00 PM 102.2 °F 30.2 °F 8% 29.74 in - WNW 26.5 mph - N/A   Unknown
2:07 PM 102.2 °F 26.6 °F 7% 29.74 in - WNW 25.3 mph 36.8 mph N/A   Unknown
3:00 PM 101 °F 29 °F 4% 29.69 in - NW 21.9 mph - -  
3:00 PM 102.2 °F 28.4 °F 7% 29.74 in - NW 21.9 mph 33.4 mph N/A   Unknown
4:00 PM 100.4 °F 28.4 °F 8% 29.74 in - NW 20.7 mph 32.2 mph N/A   Unknown
5:00 PM 99 °F 27 °F 4% 29.69 in - WNW 19.6 mph - -  
5:00 PM 98.6 °F 26.6 °F 8% 29.74 in - WNW 19.6 mph - N/A   Unknown
6:00 PM 94 °F 29 °F 4% 29.71 in - WNW 12.7 mph - -  
6:00 PM 95.0 °F 28.4 °F 9% 29.77 in - WNW 12.7 mph - N/A   Unknown
7:00 PM 89.6 °F 30.2 °F 12% 29.80 in - NW 9.2 mph - N/A   Unknown
8:00 PM 86 °F 33 °F 8% 29.76 in - WNW 9.2 mph - -  
9:00 PM 84 °F 34 °F 9% 29.78 in - WNW 10.4 mph - -  
9:00 PM 84.2 °F 33.8 °F 16% 29.83 in - WNW 10.4 mph - N/A   Unknown
10:00 PM 86.0 °F 35.6 °F 17% 29.83 in - West 11.5 mph - N/A   Unknown
11:00 PM 82 °F 33 °F 9% 29.79 in - West 8.1 mph - -  
11:00 PM 82.4 °F 33.8 °F 17% 29.83 in - West 8.1 mph - N/A   Unknown